Theta_e
319 319 319 319 320 320 320 321 321 321 321 321 321 321 324 324 323 318 307 317 322 354 351 340 337 327 320 315 319 323 305 305 310 315 318 328 327 333 337 333 335 338 335 339 344
318 318 318 318 319 319 319 320 320 320 320 320 320 321 324 325 318 311 324 342 346 353 318 312 310 315 310 313 314 308 301 306 314 318 321 329 330 330 330 331 332 334 340 343 345
317 317 318 318 318 318 319 319 319 319 319 320 320 321 324 323 312 307 342 340 347 348 316 313 312 312 309 307 307 307 304 310 316 319 327 328 329 333 329 326 331 332 337 341 341
316 317 317 317 318 318 318 318 318 318 319 319 321 323 324 319 295 317 352 354 348 327 314 310 312 310 308 305 308 305 308 315 317 325 326 327 331 329 330 330 337 338 341 341 340
315 316 316 316 317 317 318 318 318 317 318 319 321 324 317 305 305 318 350 350 330 315 310 308 308 310 306 305 306 307 312 319 323 326 327 330 329 329 332 336 339 340 340 339 339
315 315 315 315 316 317 317 317 317 317 317 319 322 323 309 299 314 323 331 322 315 310 308 309 307 313 309 305 303 308 315 318 321 324 327 324 327 330 333 337 336 338 337 339 339
315 315 315 315 315 316 317 317 317 317 318 319 324 320 314 302 318 320 314 311 309 308 307 309 311 308 308 306 311 311 314 317 320 321 323 327 320 326 334 335 333 335 336 338 339
315 315 315 315 315 315 316 315 316 317 319 320 325 317 301 315 318 319 312 308 308 305 308 311 313 309 306 309 310 305 305 307 315 321 324 319 312 326 335 333 332 334 335 337 339
314 315 314 314 314 314 314 314 316 322 322 326 314 311 306 323 318 315 315 309 306 306 307 314 310 304 305 303 301 301 298 303 311 321 320 317 312 325 334 333 331 332 334 335 335
314 314 314 314 313 313 313 314 315 318 321 325 322 307 310 311 318 317 314 311 306 305 306 306 303 301 300 299 296 299 298 301 309 317 316 313 313 324 328 329 330 331 332 333 332
313 313 313 313 313 312 309 300 301 304 311 306 306 308 311 317 319 313 314 310 307 304 299 302 298 296 300 302 304 305 303 303 307 311 311 312 313 322 325 326 325 326 328 328 329
313 313 313 312 311 312 303 298 302 301 297 307 310 312 315 315 312 314 312 306 303 298 300 298 296 302 306 306 305 304 301 300 305 311 312 309 311 321 323 324 325 326 326 327 328
312 312 312 311 310 304 298 300 304 302 296 303 307 310 311 315 311 312 309 305 300 298 298 296 299 306 305 303 303 298 298 300 301 308 311 312 309 314 321 323 325 326 327 328 328
312 312 311 310 300 300 301 302 303 302 293 299 302 307 312 315 309 318 310 307 302 299 299 298 303 304 302 302 302 294 304 303 302 305 301 309 299 308 316 318 320 323 325 326 327
311 311 310 310 300 298 301 302 302 300 285 302 303 312 310 308 310 313 311 305 301 300 299 297 300 300 300 302 304 301 304 303 302 302 301 304 298 303 313 312 317 321 323 326 328
311 311 310 304 298 302 304 301 298 294 288 301 306 303 303 306 309 309 307 307 306 301 300 299 304 302 303 305 305 306 302 300 297 295 291 300 298 296 308 314 318 322 324 326 328
310 309 308 306 296 299 300 296 290 287 301 298 298 299 299 301 305 306 304 301 297 293 293 298 299 302 305 301 302 301 294 289 289 289 290 294 296 302 310 318 320 321 324 326 328
309 308 306 306 304 303 297 291 284 293 296 301 299 298 297 301 303 304 302 299 299 297 292 292 291 300 304 301 298 298 296 290 287 288 292 295 293 300 307 317 322 323 325 327 327
308 298 298 300 305 300 294 285 288 292 300 299 299 294 296 301 302 301 299 301 302 298 294 290 292 303 306 306 303 298 294 297 292 290 291 293 299 306 309 309 314 321 324 326 327
300 295 295 304 306 297 290 288 289 296 298 298 294 296 293 295 296 297 297 303 302 303 298 296 292 300 306 305 304 302 302 295 291 289 287 292 295 298 304 307 312 317 322 325 326
293 291 297 305 301 293 285 286 293 298 298 295 294 294 294 294 294 293 296 302 305 303 303 297 294 297 301 299 300 298 296 294 294 292 290 288 293 302 305 308 312 318 323 323 322
290 284 299 302 292 289 287 291 297 296 296 295 295 295 294 295 293 294 296 300 305 304 298 298 294 292 298 302 304 300 298 296 293 290 290 291 293 305 308 307 312 315 318 321 324
287 287 299 296 286 287 291 295 296 295 295 294 294 296 296 293 289 295 297 303 305 304 299 298 292 289 293 296 299 299 299 296 294 292 292 292 295 307 307 310 310 313 316 320 323
291 285 290 293 291 290 290 292 294 301 297 296 294 295 292 291 293 292 296 302 305 305 319 308 293 296 294 296 298 297 299 299 296 293 292 294 298 303 306 308 311 312 314 318 321
289 286 290 286 289 290 290 293 294 295 300 300 295 296 293 288 290 291 295 298 302 310 308 304 297 294 300 303 300 300 301 299 297 297 296 299 298 304 307 308 313 312 314 319 321
287 287 291 288 289 290 291 289 292 295 295 295 294 299 297 290 291 291 293 294 296 299 300 300 296 300 299 302 300 300 303 302 301 299 300 298 298 306 310 311 311 312 318 321 323
295 300 295 289 288 287 288 291 293 295 296 299 298 295 296 299 301 300 300 299 297 298 298 299 296 293 294 301 298 294 301 302 301 301 301 297 302 306 307 311 312 313 318 321 323
Wind_Speed
20 20 19 19 18 18 18 19 19 19 19 19 18 17 16 16 17 2 7 8 7 16 6 8 2 4 2 3 4 4 4 2 8 8 6 8 7 4 9 11 2 4 9 10 15
23 21 21 20 20 19 18 18 18 18 19 18 16 15 14 13 4 9 9 11 10 12 5 8 5 7 2 4 2 4 5 8 7 7 11 14 9 12 6 7 9 14 14 15 16
22 24 23 22 21 21 19 19 18 18 18 17 15 14 12 8 4 11 2 19 14 12 3 2 3 4 3 5 5 6 6 7 8 7 13 15 11 4 17 3 10 20 20 17 17
22 22 24 24 23 22 21 21 20 19 18 16 13 12 10 2 6 2 5 6 14 8 3 2 3 3 2 1 4 4 5 8 10 11 14 17 8 12 4 8 16 16 17 15 18
23 23 23 24 24 24 23 21 21 19 17 15 11 6 4 2 12 2 7 10 8 8 5 4 3 4 2 3 7 5 6 12 18 17 14 13 13 7 6 17 18 17 16 16 15
24 24 24 24 25 24 24 23 21 19 17 13 9 1 1 4 6 2 8 7 6 6 5 4 4 5 1 2 3 5 7 14 17 14 14 14 9 5 7 18 19 18 17 16 14
23 23 23 24 25 25 25 25 23 20 16 9 6 3 1 17 3 2 6 5 5 6 5 5 2 3 2 7 2 2 8 5 10 10 7 13 5 8 18 17 19 18 17 16 16
23 23 24 25 25 25 26 26 26 21 10 6 5 2 9 5 4 4 2 1 3 3 3 2 5 1 3 4 6 7 6 6 5 6 11 5 5 9 17 18 18 18 15 15 16
23 24 25 25 26 26 26 28 24 9 4 9 4 2 11 5 2 7 5 3 5 3 1 2 4 3 3 5 6 7 6 3 0 6 6 4 5 14 19 18 17 16 16 16 15
24 25 26 26 27 28 28 23 9 3 3 4 4 2 6 4 4 5 5 5 3 6 3 4 4 3 3 5 4 6 5 1 7 12 4 3 5 20 20 19 19 18 16 16 15
24 25 27 27 28 28 15 4 5 3 1 7 6 6 8 6 3 4 6 6 0 4 5 4 5 8 12 7 4 4 5 6 6 4 1 8 10 22 20 15 16 16 17 15 16
24 25 27 29 29 24 2 4 6 2 11 10 17 12 13 4 5 4 7 7 5 5 3 4 9 7 6 7 4 3 3 6 6 8 10 7 5 19 21 23 21 20 17 15 12
24 25 26 29 33 3 2 5 6 5 4 10 8 8 6 10 9 10 10 6 4 5 5 7 4 8 6 3 2 3 5 5 8 4 4 10 3 9 14 9 13 15 13 12 15
24 25 24 31 3 5 5 4 7 3 3 10 6 11 8 9 6 10 10 8 4 11 5 6 6 2 3 4 7 4 7 5 7 7 7 3 8 9 15 16 13 16 15 14 15
23 24 22 15 6 4 5 9 8 2 4 6 6 1 6 14 5 8 6 5 9 6 8 10 4 5 5 11 7 14 7 6 6 7 4 2 5 7 13 12 20 20 18 18 18
24 24 23 3 2 10 10 10 3 5 9 7 4 5 6 4 6 3 6 4 5 4 1 8 1 7 10 5 12 2 1 7 6 3 1 8 8 5 12 27 26 15 19 20 18
26 27 19 5 7 3 5 5 3 6 4 7 3 1 5 7 9 7 13 12 8 7 7 5 7 5 3 6 2 5 7 4 3 3 7 7 3 10 16 21 25 26 24 21 19
29 30 8 5 9 5 2 5 7 9 10 3 2 4 5 4 8 6 12 13 4 6 5 7 7 8 3 11 7 7 10 8 6 5 6 2 7 11 12 20 24 22 26 22 19
28 4 5 6 10 5 5 6 9 8 6 4 4 2 4 4 5 6 10 18 15 9 10 7 8 5 5 8 12 5 3 7 8 3 2 4 7 8 2 9 12 18 18 20 21
8 6 6 2 10 4 5 7 7 5 1 2 4 2 2 1 4 4 8 11 7 16 4 7 2 6 6 3 3 9 7 3 4 5 5 5 4 7 6 9 5 10 19 18 16
3 6 5 8 4 4 5 8 7 11 4 1 5 3 1 3 3 4 5 4 14 12 15 7 5 8 2 7 10 1 2 5 6 6 8 4 8 9 11 12 12 14 15 14 13
3 4 1 5 3 1 3 6 5 5 1 5 1 5 2 2 3 6 9 7 5 7 13 11 7 7 18 6 3 5 7 7 7 5 2 5 10 5 10 7 7 10 11 13 18
4 5 7 4 4 3 5 5 5 6 6 6 6 5 2 4 1 6 7 8 9 9 12 9 5 3 10 7 3 5 6 6 3 4 9 7 8 3 4 7 4 8 8 8 7
3 6 6 4 1 2 5 4 5 5 14 8 4 3 4 5 8 8 5 6 4 3 13 10 6 14 18 14 7 5 5 6 7 5 5 8 7 3 6 10 5 5 6 8 9
1 4 2 5 4 7 5 4 4 3 3 4 4 10 10 7 8 12 8 8 8 8 5 13 15 7 15 21 9 9 8 9 9 8 10 11 10 10 15 13 17 10 8 8 7
2 2 4 4 5 5 4 4 5 6 5 4 2 8 7 10 8 3 7 7 9 5 4 4 7 18 17 17 11 11 12 8 10 3 9 3 7 8 7 8 7 13 13 11 10
3 2 2 4 5 3 3 5 8 8 7 7 6 7 11 8 10 16 16 12 8 5 4 4 6 5 14 15 7 4 17 12 7 6 10 6 12 7 5 10 15 12 11 13 9
Wind_Direction
359 356 353 351 349 346 343 340 338 336 334 331 331 328 327 325 313 208 243 212 174 176 149 112 152 229 44 279 211 134 60 137 189 168 159 149 152 151 94 132 164 155 134 140 143
354 354 351 349 346 345 342 338 335 332 331 329 328 325 326 332 314 270 219 201 191 175 175 180 151 160 181 241 285 117 132 212 191 168 160 160 168 133 124 129 101 102 114 135 139
354 349 348 347 345 342 339 336 333 330 328 326 326 322 322 327 329 251 288 216 178 175 236 171 129 178 222 170 216 190 200 169 169 159 152 146 148 105 134 109 157 148 148 149 150
354 350 345 343 341 339 337 333 330 327 324 322 321 317 324 301 254 247 332 211 172 149 203 190 110 125 257 280 262 254 232 168 144 139 152 155 122 136 207 158 148 150 152 153 160
351 348 344 340 337 334 332 329 323 322 320 315 311 313 323 346 251 293 53 99 120 141 180 158 123 150 287 285 313 83 352 127 138 150 154 135 135 129 120 136 143 150 159 170 174
347 344 342 339 334 331 326 323 319 318 314 303 296 240 160 264 251 180 119 128 129 143 164 141 206 191 207 278 49 319 42 129 138 148 142 124 132 90 152 147 152 161 172 175 185
344 340 338 336 333 328 325 318 318 316 304 282 263 226 194 236 28 88 130 161 169 158 130 215 132 28 43 331 150 296 71 49 136 137 113 116 27 150 155 161 160 173 178 183 190
340 338 335 333 329 326 321 317 317 313 285 222 200 240 249 249 300 189 182 148 160 144 192 124 151 306 173 264 28 75 56 118 237 176 160 98 206 165 161 166 176 180 189 192 196
338 336 334 332 328 324 319 315 315 330 159 159 129 196 265 304 202 221 157 207 145 138 273 262 148 197 11 98 44 4 176 126 358 231 139 86 149 173 174 177 183 193 193 196 200
336 334 333 332 327 324 320 307 284 337 191 197 251 342 276 307 226 198 177 157 143 129 186 161 76 111 32 83 187 137 143 215 173 214 187 198 198 167 181 184 190 196 201 200 198
335 333 331 331 328 325 333 14 15 350 195 222 215 251 293 285 275 206 150 126 155 111 161 186 121 194 203 184 145 119 157 175 254 245 97 212 157 176 185 194 198 198 199 202 201
333 333 331 329 326 326 314 46 91 205 301 238 249 249 253 58 306 311 110 155 139 192 153 45 220 197 150 160 174 191 255 266 229 193 165 176 223 180 184 200 197 200 202 202 195
331 331 332 329 322 14 250 238 48 23 225 280 205 206 199 149 205 244 158 144 149 184 188 177 205 136 162 156 174 220 199 243 216 37 68 112 22 195 211 212 215 218 213 209 192
329 328 333 335 29 327 281 333 318 212 9 270 230 253 162 137 255 206 171 144 213 194 153 234 241 195 106 255 128 282 202 260 252 164 194 160 224 221 204 212 219 219 210 206 201
325 324 325 334 285 304 279 320 313 120 323 249 235 233 196 156 150 224 162 83 174 174 126 238 185 178 191 229 143 236 137 213 246 161 106 211 83 250 151 217 224 218 212 208 204
321 318 324 339 274 246 316 302 69 53 239 299 243 185 136 192 170 88 140 100 157 130 251 226 182 169 206 236 185 306 25 35 63 106 280 219 148 249 182 210 224 219 217 212 203
318 311 304 236 232 137 305 20 65 182 250 252 266 150 196 170 172 169 171 180 159 153 232 348 263 253 149 315 90 105 65 326 346 12 208 162 112 236 209 213 212 206 214 209 202
318 309 268 207 230 297 6 60 211 192 223 290 332 28 187 158 204 163 164 192 209 114 133 166 294 181 183 188 199 177 160 168 194 205 228 73 203 247 218 223 217 210 208 201 199
321 314 283 249 182 148 104 187 207 214 201 284 6 283 224 219 167 139 181 196 194 176 169 151 258 271 196 198 146 237 178 199 111 7 36 218 286 323 177 259 241 216 203 202 201
321 329 267 278 157 115 109 226 221 236 346 53 179 152 201 89 110 169 174 198 209 192 148 206 259 210 245 149 249 161 168 93 0 155 236 288 279 235 308 282 272 199 204 203 201
6 341 277 147 141 41 194 219 223 266 360 136 217 231 138 6 105 149 241 256 201 195 190 154 143 270 85 185 197 205 187 45 118 134 171 215 259 217 220 228 204 202 197 188 187
3 322 280 347 43 205 208 189 233 240 102 256 215 208 210 164 245 208 205 192 172 156 172 207 177 225 239 230 223 164 203 166 144 228 158 167 262 215 240 206 189 203 189 191 203
320 260 304 105 219 244 276 268 236 223 216 197 219 182 167 151 330 224 223 222 229 191 191 175 221 243 297 312 328 208 194 146 105 68 189 170 261 339 201 164 222 192 175 181 158
333 318 311 34 343 29 352 263 244 239 258 248 235 282 296 264 211 254 254 290 352 279 216 154 156 193 224 226 166 202 192 175 151 165 172 209 222 247 213 178 199 181 164 172 174
230 258 273 329 322 328 276 257 250 269 306 213 234 207 205 234 206 233 237 271 284 272 240 167 222 184 224 221 179 188 192 169 180 197 184 228 198 217 201 194 192 171 162 141 172
253 330 345 285 284 315 278 39 37 0 306 303 244 335 280 221 207 250 199 197 240 298 230 156 239 209 230 227 212 209 228 219 219 172 253 182 231 222 197 80 135 177 167 167 176
260 295 301 284 312 350 263 359 338 357 276 285 335 313 290 265 252 241 233 238 229 227 286 191 150 129 230 220 193 273 227 208 196 178 166 173 225 153 158 170 179 181 179 165 169